• In Hungary
  • List of Countries
  • For 7 days
  • Water Temperature
  • Satellite Maps
  • Weather Map
  • News
  • Weather Widgets
  • user-avatar
    Login

    Hourly Weather Katsina

    Today, 21 September, Friday

    Time Temperature Precipitation Wind Pressure Humidity
    00:00 +32°C° 0 mm 2 mps 714 mmHg 35%
    01:00 +31°C° 0 mm 2 mps 714 mmHg 36%
    02:00 +31°C° 0 mm 2 mps 714 mmHg 37%
    03:00 +31°C° 0 mm 2 mps 713 mmHg 38%
    04:00 +30°C° 0 mm 2 mps 713 mmHg 40%
    05:00 +30°C° 0 mm 2 mps 713 mmHg 42%
    06:00 +30°C° 0 mm 2 mps 713 mmHg 44%
    07:00 +30°C° 0 mm 2 mps 713 mmHg 46%
    08:00 +31°C° 0 mm 2 mps 714 mmHg 41%
    09:00 +33°C° 0 mm 1 mps 714 mmHg 36%
    10:00 +35°C° 0 mm 1 mps 715 mmHg 32%
    11:00 +38°C° 0 mm 2 mps 714 mmHg 28%
    12:00 +39°C° 0 mm 3 mps 714 mmHg 24%
    13:00 +42°C° 0 mm 3 mps 714 mmHg 20%
    14:00 +40°C° 0 mm 3 mps 713 mmHg 21%
    15:00 +40°C° 0 mm 3 mps 712 mmHg 21%
    16:00 +40°C° 0 mm 3 mps 711 mmHg 22%
    17:00 +39°C° 0 mm 3 mps 711 mmHg 23%
    18:00 +38°C° 0 mm 2 mps 712 mmHg 24%
    19:00 +37°C° 0 mm 2 mps 712 mmHg 25%
    20:00 +35°C° 0 mm 1 mps 712 mmHg 26%
    21:00 +35°C° 0 mm 1 mps 713 mmHg 26%
    22:00 +34°C° 0 mm 1 mps 713 mmHg 27%
    23:00 +35°C° 0 mm 2 mps 713 mmHg 28%

    Tomorrow, 22 September, Saturday

    Time Temperature Precipitation Wind Pressure Humidity
    00:00 +35°C° 0 mm 2 mps 713 mmHg 29%
    01:00 +35°C° 0 mm 3 mps 713 mmHg 30%
    02:00 +34°C° 0 mm 3 mps 713 mmHg 35%
    03:00 +33°C° 0 mm 3 mps 712 mmHg 40%
    04:00 +32°C° 0 mm 4 mps 712 mmHg 46%
    05:00 +30°C° 0 mm 4 mps 713 mmHg 52%
    06:00 +29°C° 0 mm 4 mps 713 mmHg 59%
    07:00 +29°C° 0 mm 4 mps 713 mmHg 65%
    08:00 +30°C° 0 mm 5 mps 714 mmHg 62%
    09:00 +32°C° 0 mm 5 mps 714 mmHg 60%
    10:00 +33°C° 0 mm 6 mps 715 mmHg 57%
    11:00 +34°C° 0 mm 5 mps 715 mmHg 52%
    12:00 +35°C° 0 mm 5 mps 714 mmHg 48%
    13:00 +37°C° 0 mm 5 mps 714 mmHg 44%
    14:00 +37°C° 0 mm 5 mps 714 mmHg 43%
    15:00 +37°C° 0 mm 4 mps 713 mmHg 42%
    16:00 +37°C° 0 mm 4 mps 712 mmHg 42%
    17:00 +36°C° 0.1 mm 4 mps 712 mmHg 45%
    18:00 +35°C° 0.1 mm 4 mps 713 mmHg 48%
    19:00 +34°C° 0.1 mm 5 mps 713 mmHg 52%
    20:00 +34°C° 0 mm 5 mps 713 mmHg 54%
    21:00 +33°C° 0 mm 5 mps 713 mmHg 57%
    22:00 +32°C° 0 mm 6 mps 713 mmHg 60%
    23:00 +32°C° 0.1 mm 5 mps 713 mmHg 62%

    Day after tomorrow, 23 September, Sunday

    Time Temperature Precipitation Wind Pressure Humidity
    00:00 +30°C° 0.1 mm 5 mps 713 mmHg 64%
    01:00 +30°C° 0.1 mm 5 mps 714 mmHg 66%
    02:00 +29°C° 2 mm 6 mps 714 mmHg 68%
    03:00 +28°C° 2 mm 7 mps 714 mmHg 70%
    04:00 +27°C° 2 mm 8 mps 714 mmHg 72%
    05:00 +27°C° 0 mm 7 mps 714 mmHg 71%
    06:00 +27°C° 0 mm 5 mps 714 mmHg 69%
    07:00 +26°C° 0 mm 4 mps 714 mmHg 68%
    08:00 +28°C° 0 mm 4 mps 715 mmHg 62%
    09:00 +29°C° 0 mm 4 mps 715 mmHg 56%
    10:00 +32°C° 0 mm 4 mps 716 mmHg 49%
    11:00 +33°C° 0 mm 4 mps 715 mmHg 46%
    12:00 +35°C° 0 mm 4 mps 715 mmHg 42%
    13:00 +36°C° 0 mm 4 mps 715 mmHg 38%
    14:00 +37°C° 0 mm 4 mps 714 mmHg 38%
    15:00 +37°C° 0 mm 4 mps 714 mmHg 37%
    16:00 +37°C° 0 mm 4 mps 713 mmHg 37%
    17:00 +36°C° 0 mm 4 mps 713 mmHg 40%
    18:00 +35°C° 0 mm 4 mps 714 mmHg 43%
    19:00 +34°C° 0 mm 4 mps 714 mmHg 47%
    20:00 +33°C° 0 mm 4 mps 714 mmHg 48%
    21:00 +33°C° 0 mm 4 mps 714 mmHg 50%
    22:00 +32°C° 0 mm 4 mps 715 mmHg 52%
    23:00 +30°C° 0 mm 4 mps 714 mmHg 53%

    24 September, Monday

    Time Temperature Precipitation Wind Pressure Humidity
    00:00 +30°C° 0 mm 4 mps 714 mmHg 54%
    01:00 +30°C° 0 mm 4 mps 713 mmHg 55%
    02:00 +29°C° 0 mm 4 mps 713 mmHg 57%
    03:00 +29°C° 0 mm 4 mps 713 mmHg 59%
    04:00 +28°C° 0 mm 4 mps 713 mmHg 60%
    05:00 +28°C° 0 mm 4 mps 713 mmHg 62%
    06:00 +28°C° 0 mm 4 mps 714 mmHg 64%
    07:00 +27°C° 0 mm 4 mps 714 mmHg 67%
    08:00 +29°C° 0 mm 5 mps 715 mmHg 62%
    09:00 +32°C° 0 mm 5 mps 715 mmHg 57%
    10:00 +33°C° 0 mm 6 mps 716 mmHg 52%
    11:00 +35°C° 0 mm 6 mps 715 mmHg 47%
    12:00 +36°C° 0 mm 5 mps 715 mmHg 43%
    13:00 +37°C° 0 mm 5 mps 714 mmHg 38%
    14:00 +39°C° 0 mm 5 mps 714 mmHg 36%
    15:00 +38°C° 0 mm 4 mps 713 mmHg 34%
    16:00 +40°C° 0 mm 4 mps 712 mmHg 32%
    17:00 +38°C° 0 mm 4 mps 713 mmHg 34%
    18:00 +37°C° 0 mm 3 mps 713 mmHg 35%
    19:00 +36°C° 0 mm 3 mps 713 mmHg 37%
    20:00 +35°C° 0 mm 4 mps 713 mmHg 40%
    21:00 +35°C° 0 mm 5 mps 713 mmHg 42%
    22:00 +34°C° 0 mm 5 mps 714 mmHg 45%
    23:00 +33°C° 0 mm 5 mps 713 mmHg 50%

    25 September, Tuesday

    Time Temperature Precipitation Wind Pressure Humidity
    00:00 +32°C° 0 mm 5 mps 713 mmHg 54%
    01:00 +30°C° 0 mm 5 mps 713 mmHg 59%
    02:00 +30°C° 0 mm 5 mps 713 mmHg 62%
    03:00 +29°C° 0 mm 5 mps 713 mmHg 65%
    04:00 +29°C° 0 mm 5 mps 713 mmHg 68%
    05:00 +28°C° 0 mm 4 mps 713 mmHg 70%
    06:00 +28°C° 0 mm 4 mps 714 mmHg 71%
    07:00 +28°C° 0 mm 3 mps 714 mmHg 73%
    08:00 +29°C° 0 mm 4 mps 715 mmHg 67%
    09:00 +32°C° 0 mm 4 mps 715 mmHg 62%
    10:00 +33°C° 0 mm 5 mps 716 mmHg 57%
    11:00 +35°C° 0 mm 4 mps 715 mmHg 51%
    12:00 +36°C° 0 mm 4 mps 714 mmHg 46%
    13:00 +37°C° 0 mm 4 mps 714 mmHg 41%
    14:00 +38°C° 0 mm 3 mps 713 mmHg 38%
    15:00 +38°C° 0 mm 2 mps 713 mmHg 35%
    16:00 +39°C° 0 mm 1 mps 712 mmHg 32%
    17:00 +37°C° 0 mm 1 mps 712 mmHg 34%
    18:00 +36°C° 0 mm 1 mps 713 mmHg 35%
    19:00 +37°C° 0 mm 2 mps 713 mmHg 36%
    20:00 +35°C° 1.9 mm 3 mps 713 mmHg 44%
    21:00 +33°C° 1.9 mm 5 mps 713 mmHg 52%
    22:00 +32°C° 1.9 mm 6 mps 713 mmHg 60%
    23:00 +30°C° 2 mm 6 mps 713 mmHg 62%

    26 September, Wednesday

    Time Temperature Precipitation Wind Pressure Humidity
    00:00 +29°C° 2 mm 6 mps 713 mmHg 64%
    01:00 +29°C° 2 mm 7 mps 713 mmHg 66%
    02:00 +29°C° 0 mm 5 mps 713 mmHg 65%
    03:00 +28°C° 0 mm 4 mps 712 mmHg 64%
    04:00 +28°C° 0 mm 2 mps 712 mmHg 63%
    05:00 +28°C° 0 mm 2 mps 712 mmHg 62%
    06:00 +28°C° 0 mm 2 mps 713 mmHg 61%
    07:00 +28°C° 0 mm 2 mps 713 mmHg 61%
    08:00 +30°C° 0 mm 2 mps 714 mmHg 55%
    09:00 +31°C° 0 mm 2 mps 714 mmHg 50%
    10:00 +34°C° 0 mm 2 mps 715 mmHg 44%
    11:00 +35°C° 0 mm 2 mps 714 mmHg 41%
    12:00 +37°C° 0 mm 2 mps 714 mmHg 37%
    13:00 +38°C° 0 mm 2 mps 713 mmHg 33%
    14:00 +38°C° 0 mm 2 mps 713 mmHg 31%
    15:00 +39°C° 0 mm 2 mps 712 mmHg 28%
    16:00 +40°C° 0 mm 2 mps 712 mmHg 26%
    17:00 +39°C° 0 mm 2 mps 712 mmHg 27%
    18:00 +38°C° 0 mm 2 mps 712 mmHg 29%
    19:00 +37°C° 0 mm 3 mps 712 mmHg 31%
    20:00 +36°C° 0 mm 3 mps 712 mmHg 35%
    21:00 +35°C° 0 mm 4 mps 712 mmHg 39%
    22:00 +34°C° 0 mm 5 mps 712 mmHg 43%
    23:00 +33°C° 0 mm 5 mps 712 mmHg 47%
    Show more